Hourly Data Report for July 01, 2021

WRIGLEY A
NORTHWEST TERRITORIES
Current Station Operator: NAVCAN

63°12'35.000" N
123°26'12.000" W
149.70 m
2204005
YWY

Download Data

Hourly Data (July 2021)
Hourly Data Report for July 1, 2021
TIME
LST
Temp Definition
°C
Dew Point Definition
°C
Rel Hum Definition
%
Precip. Amount Definition
mm

Wind Dir Definition
10's deg

Wind Spd Definition
km/h
Visibility Definition
km
Stn Press Definition
kPa
Hmdx Definition


Wind Chill Definition


Weather Definition


00:00 15.4 13.1 86 LegendMM 32 5 LegendMM 99.88     LegendNANA
01:00 15.1 13.2 88 LegendMM 32 7 LegendMM 99.91     LegendNANA
02:00 14.5 13.2 92 LegendMM 32 7 LegendMM 99.95     LegendNANA
03:00 13.7 13.1 96 LegendMM 31 7 LegendMM 99.91     LegendNANA
04:00 12.6 12.2 98 LegendMM 31 2 LegendMM 99.97     LegendNANA
05:00 12.7 12.3 97 LegendMM 34 2 LegendMM 100.04     LegendNANA
06:00 13.4 12.7 95 LegendMM 2 4 LegendMM 100.04     LegendNANA
07:00 13.7 12.8 94 LegendMM 36 3 LegendMM 100.06     LegendNANA
08:00 14.4 12.9 91 LegendMM 35 4 LegendMM 100.09     LegendNANA
09:00 15.2 13.3 89 LegendMM 31 5 LegendMM 100.10     LegendNANA
10:00 17.0 13.3 79 LegendMM 30 12 LegendMM 100.10     LegendNANA
11:00 18.0 12.8 71 LegendMM 30 12 LegendMM 100.07     LegendNANA
12:00 20.3 12.9 62 LegendMM 29 9 LegendMM 100.05     LegendNANA
13:00 21.5 12.2 55 LegendMM 31 11 LegendMM 99.99     LegendNANA
14:00 22.6 9.8 44 LegendMM 27 9 LegendMM 99.95     LegendNANA
15:00 23.6 10.8 44 LegendMM 31 9 LegendMM 99.91 25   LegendNANA
16:00 24.4 11.0 43 LegendMM 28 9 LegendMM 99.88 26   LegendNANA
17:00 25.0 12.2 44 LegendMM 27 9 LegendMM 99.83 27   LegendNANA
18:00 25.4 11.9 42 LegendMM 8 6 LegendMM 99.80 28   LegendNANA
19:00 24.8 11.4 43 LegendMM 21 4 LegendMM 99.78 27   LegendNANA
20:00 22.7 13.3 55 LegendMM 10 1 LegendMM 99.78 26   LegendNANA
21:00 22.1 11.8 52 LegendMM 18 7 LegendMM 99.79     LegendNANA
22:00 21.6 11.2 51 LegendMM 14 6 LegendMM 99.80     LegendNANA
23:00 17.1 13.6 80 LegendMM 3 5 LegendMM 99.79     LegendNANA

Notes on Data Quality.

Legend

  • E = Estimated
  • M = Missing
  • NA = Not Available*
  • [empty] = Indicates an unobserved value
Date modified: